130P/McNaught-Hughes (2024)

Japanese version
Home page
Updated on September 4, 2024

---------------------------------------------------------------------

* Profile

* Pictures

* Orbital Elements

Epoch 2024 Mar. 31.0 TT = JDT 2460400.5
T 2024 Apr. 14.88316 TT                                 Rudenko
q   1.8229852            (2000.0)            P               Q
n   0.15852005     Peri.  246.12734     +0.71822654     +0.68867656
a   3.3812705      Node    70.17867     -0.59378766     +0.68108520
e   0.4608579      Incl.    6.06360     -0.36272145     +0.24869166
P   6.22
>From 1143 observations 2004 Apr. 20-2024 Mar. 18, mean residual 0".7.
     Nongravitational parameters A1 = +0.03, A2 = +0.0008.

* Finding Charts

* Magnitudes Graph

        m1 = 12.5 + 5 log d + 10.0 log r  [    ,-360]  (             - 2023 Apr. 20)
        m1 =  7.5 + 5 log d + 20.0 log r  [-360, 360]  (2023 Apr. 20 - 2025 Apr.  9)
        m1 = 12.5 + 5 log d + 10.0 log r  [ 360,    ]  (2025 Apr.  9 -             )

---------------------------------------------------------------------

The orbital elements are published on M.P.E.C. 2024-F34.
The charts are made with StellaNavigator Ver.10 (AstroArts).
The magnitudes graphs are made with Comet for Windows.

---------------------------------------------------------------------

Copyright(C) Seiichi Yoshida (comet@aerith.net). All rights reserved.